EW6013 Weather Reports


Display with metric or nautical units.
time (UTC)temp
F
wind
direction
speed
MPH
gust
MPH
rain 1hr
in
rain 24hr
in
rain mn
in
humidity
%
barometer
mb
20260507033515 56 0.0 1.0 0.00 0.20 0.20 90 1003.9
20260507033015 56 284 0.0 1.0 0.00 0.20 0.20 90 1003.7
20260507032515 57 0.0 4.0 0.00 0.20 0.20 90 1003.7
20260507032015 57 281 0.0 4.0 0.00 0.20 0.20 90 1003.6
20260507031515 58 0.0 1.0 0.00 0.20 0.20 91 1003.5
20260507031015 58 289 0.0 1.0 0.00 0.20 0.20 92 1003.4
20260507030515 58 0.0 0.0 0.00 0.20 0.20 91 1003.2
20260507030015 59 0.0 12.0 0.00 0.20 0.20 91 1003.1
20260507025515 59 257 1.0 12.0 0.00 0.20 0.20 92 1003.1
20260507025015 59 272 0.0 12.0 0.00 0.20 0.20 92 1003.2
20260507024515 60 263 1.0 12.0 0.00 0.20 0.20 92 1003.3
20260507024015 60 0.0 0.0 0.00 0.20 0.20 92 1003.3
20260507023515 60 0.0 0.0 0.00 0.20 0.20 92 1003.1
20260507023015 59 0.0 3.0 0.00 0.20 0.20 92 1003.1
20260507022515 59 252 0.0 3.0 0.00 0.20 0.20 92 1003.1
20260507022015 59 0.0 0.0 0.00 0.20 0.20 92 1003.1
20260507021515 59 0.0 0.0 0.00 0.20 0.20 92 1003.0
20260507021035 59 0.0 0.0 0.00 0.20 0.20 92 1002.8
20260507020515 59 0.0 0.0 0.00 0.20 0.20 92 1002.8
20260507020015 59 0.0 0.0 0.00 0.20 0.20 92 1002.6
20260507015515 59 0.0 0.0 0.00 0.20 0.20 92 1002.8
20260507015015 59 0.0 0.0 0.00 0.20 0.20 92 1002.8
20260507014515 59 0.0 0.0 0.00 0.20 0.20 92 1002.7
20260507014015 59 0.0 0.0 0.00 0.20 0.20 92 1002.7
20260507013535 59 0.0 0.0 0.00 0.20 0.20 92 1002.8
20260507013015 59 0.0 0.0 0.00 0.20 0.20 92 1002.8
20260507012515 59 0.0 0.0 0.00 0.20 0.20 92 1002.7
20260507012015 59 0.0 1.0 0.00 0.20 0.20 92 1002.8
20260507011515 59 160 0.0 1.0 0.00 0.20 0.20 92 1002.8
20260507011015 59 0.0 0.0 0.00 0.20 0.20 92 1002.8
20260507010514 59 0.0 0.0 0.01 0.20 0.20 92 1002.8
20260507010017 59 0.0 1.0 0.01 0.20 0.20 92 1002.8
20260507005516 59 194 0.0 1.0 0.01 0.20 0.20 92 1002.8
20260507005017 59 0.0 1.0 0.01 0.20 0.20 92 1002.8
20260507004536 59 200 0.0 1.0 0.01 0.20 0.20 92 1002.7
20260507004037 59 0.0 0.0 0.02 0.20 0.20 92 1002.6
20260507003516 59 0.0 0.0 0.02 0.20 0.20 92 1002.7
20260507003016 59 0.0 0.0 0.02 0.20 0.20 92 1002.6
20260507002517 59 0.0 6.0 0.02 0.20 0.20 92 1002.5
20260507002037 59 195 0.0 6.0 0.02 0.20 0.20 92 1002.5
20260507001516 59 0.0 0.0 0.03 0.20 0.20 92 1002.4
20260507001017 59 0.0 0.0 0.03 0.20 0.20 92 1002.4
20260507000516 60 0.0 1.0 0.02 0.19 0.19 92 1002.5
20260507000017 60 223 0.0 2.0 0.03 0.19 0.19 92 1002.6
20260506235516 60 200 0.0 4.0 0.03 0.19 0.19 92 1002.5
20260506235017 60 222 0.0 4.0 0.03 0.19 0.19 92 1002.4
20260506234517 60 0.0 3.0 0.03 0.19 0.19 92 1002.4
20260506234036 60 189 0.0 3.0 0.03 0.18 0.18 92 1002.4
20260506233516 60 0.0 0.0 0.03 0.18 0.18 92 1002.3
20260506233037 60 0.0 0.0 0.03 0.18 0.18 92 1002.3
20260506232556 60 0.0 0.0 0.04 0.18 0.18 92 1002.3
20260506232016 60 0.0 0.0 0.04 0.18 0.18 92 1002.3
20260506231516 60 0.0 1.0 0.03 0.17 0.17 92 1002.3
20260506231016 60 57 0.0 1.0 0.03 0.17 0.17 92 1002.3
20260506230516 60 0.0 0.0 0.03 0.17 0.17 92 1002.4
20260506230016 60 0.0 0.0 0.03 0.16 0.16 92 1002.4
20260506225536 60 0.0 0.0 0.03 0.16 0.16 92 1002.4
20260506225016 60 0.0 0.0 0.03 0.16 0.16 91 1002.5
20260506224516 60 0.0 0.0 0.04 0.16 0.16 91 1002.6
20260506224036 60 0.0 0.0 0.03 0.15 0.15 91 1002.6
20260506223557 60 0.0 0.0 0.03 0.15 0.15 91 1002.5
20260506223016 60 0.0 0.0 0.03 0.15 0.15 91 1002.5
20260506222516 60 0.0 1.0 0.03 0.14 0.14 91 1002.4
20260506222016 60 188 0.0 1.0 0.03 0.14 0.14 91 1002.4
20260506221536 60 0.0 0.0 0.03 0.14 0.14 91 1002.6
20260506221016 60 0.0 0.0 0.03 0.14 0.14 91 1002.6
20260506220516 60 0.0 1.0 0.03 0.14 0.14 91 1002.7
20260506220016 60 156 0.0 5.0 0.02 0.13 0.13 91 1002.7
20260506215516 60 249 0.0 5.0 0.03 0.13 0.13 91 1002.6
20260506215016 60 259 0.0 3.0 0.03 0.13 0.13 91 1002.6
20260506214516 60 200 0.0 9.0 0.02 0.12 0.12 91 1002.7
20260506214016 60 184 0.0 9.0 0.03 0.12 0.12 91 1002.7
20260506213516 60 0.0 0.0 0.03 0.12 0.12 91 1002.7
20260506213036 60 0.0 2.0 0.04 0.12 0.12 91 1002.7
20260506212516 60 215 0.0 2.0 0.03 0.11 0.11 91 1002.7
20260506212016 61 0.0 0.0 0.03 0.11 0.11 91 1002.8
20260506211516 61 0.0 0.0 0.04 0.11 0.11 91 1002.9
20260506211016 61 0.0 0.0 0.04 0.11 0.11 91 1003.0
20260506210536 61 0.0 7.0 0.05 0.11 0.11 91 1003.0
20260506210016 61 234 0.0 7.0 0.05 0.11 0.11 91 1003.1
20260506205516 61 0.0 0.0 0.04 0.10 0.10 91 1003.1
20260506205016 61 0.0 1.0 0.04 0.10 0.10 91 1003.2
20260506204516 61 189 0.0 3.0 0.04 0.10 0.10 91 1003.3
20260506204016 61 156 0.0 3.0 0.03 0.09 0.09 90 1003.3
20260506203516 61 0.0 1.0 0.03 0.09 0.09 90 1003.4
20260506203016 61 155 0.0 6.0 0.02 0.08 0.08 90 1003.3
20260506202516 61 177 0.0 8.0 0.02 0.08 0.08 90 1003.3
20260506202016 62 206 0.0 8.0 0.02 0.08 0.08 89 1003.3
20260506201536 62 158 0.0 2.0 0.01 0.07 0.07 90 1003.4
20260506201016 62 0.0 0.0 0.01 0.07 0.07 89 1003.4
20260506200516 62 0.0 0.0 0.00 0.06 0.06 89 1003.4
20260506200016 62 0.0 1.0 0.01 0.06 0.06 89 1003.4
20260506195516 62 199 0.0 1.0 0.01 0.06 0.06 89 1003.5
20260506195016 62 0.0 0.0 0.01 0.06 0.06 89 1003.5
20260506194516 62 0.0 0.0 0.02 0.06 0.06 89 1003.5
20260506194016 62 0.0 0.0 0.02 0.06 0.06 89 1003.5
20260506193536 62 0.0 0.0 0.02 0.06 0.06 89 1003.5
20260506193016 62 0.0 7.0 0.03 0.06 0.06 89 1003.4
20260506192516 63 222 0.0 7.0 0.03 0.06 0.06 90 1003.5
20260506192016 63 179 0.0 2.0 0.04 0.06 0.06 90 1003.5
20260506191516 63 0.0 0.0 0.04 0.06 0.06 89 1003.5
20260506191016 63 0.0 0.0 0.05 0.06 0.06 89 1003.4
20260506190516 63 0.0 0.0 0.05 0.06 0.06 89 1003.3
20260506190016 63 0.0 0.0 0.05 0.05 0.05 88 1003.4
20260506185516 63 0.0 1.0 0.05 0.05 0.05 88 1003.5
20260506185016 63 229 0.0 1.0 0.05 0.05 0.05 87 1003.6
20260506184516 63 0.0 0.0 0.04 0.04 0.04 86 1003.6
20260506184016 64 0.0 0.0 0.04 0.04 0.04 85 1003.8
20260506183536 64 0.0 1.0 0.04 0.04 0.04 84 1003.8
20260506183016 65 172 0.0 2.0 0.03 0.03 0.03 83 1003.8
20260506182516 65 168 0.0 2.0 0.03 0.03 0.03 82 1004.0
20260506182016 66 0.0 2.0 0.02 0.02 0.02 81 1004.1
20260506181516 67 189 0.0 2.0 0.02 0.02 0.02 78 1004.1
20260506181016 68 203 0.0 3.0 0.01 0.01 0.01 75 1004.2
20260506180536 69 257 0.0 11.0 0.01 0.01 0.01 72 1004.2
20260506180036 69 244 1.0 15.0 0.00 0.00 0.00 69 1004.1
20260506175516 70 232 2.0 15.0 0.00 0.00 0.00 67 1004.0
20260506175016 70 242 0.0 5.0 0.00 0.00 0.00 64 1003.9
20260506174536 71 220 0.0 5.0 0.00 0.00 0.00 62 1003.9
20260506174016 71 246 0.0 1.0 0.00 0.00 0.00 61 1003.8
20260506173536 71 0.0 1.0 0.00 0.00 0.00 61 1003.9
20260506173016 71 243 0.0 19.0 0.00 0.00 0.00 60 1003.9
20260506172536 71 216 4.0 19.0 0.00 0.00 0.00 60 1003.9
20260506172015 72 0.0 14.0 0.00 0.00 0.00 60 1003.7
20260506171516 72 237 0.0 14.0 0.00 0.00 0.00 59 1003.7
20260506171015 72 212 0.0 2.0 0.00 0.00 0.00 59 1003.7
20260506170515 72 0.0 10.0 0.00 0.00 0.00 60 1003.8
20260506170016 72 244 0.0 10.0 0.00 0.00 0.00 60 1003.9
20260506165515 72 240 0.0 3.0 0.00 0.00 0.00 61 1004.0
20260506165016 72 169 0.0 10.0 0.00 0.00 0.00 62 1004.0
20260506164515 71 222 0.0 10.0 0.00 0.00 0.00 63 1004.1
20260506164015 71 196 0.0 5.0 0.00 0.00 0.00 62 1004.2
20260506163515 71 208 0.0 5.0 0.00 0.00 0.00 64 1004.2
20260506163015 71 0.0 9.0 0.00 0.00 0.00 64 1004.4
20260506162556 70 206 0.0 9.0 0.00 0.00 0.00 64 1004.5
20260506162015 70 178 0.0 2.0 0.00 0.00 0.00 65 1004.5
20260506161616 70 0.0 6.0 0.00 0.00 0.00 66 1004.6
20260506161015 70 221 0.0 6.0 0.00 0.00 0.00 65 1004.6
20260506160515 70 242 0.0 1.0 0.00 0.00 0.00 66 1004.7
20260506160036 70 0.0 0.0 0.00 0.00 0.00 67 1004.9
20260506155515 70 0.0 0.0 0.00 0.00 0.00 67 1005.0
20260506155015 69 0.0 2.0 0.00 0.00 0.00 68 1005.0
20260506154515 69 207 0.0 2.0 0.00 0.00 0.00 68 1005.2
20260506154015 69 240 0.0 2.0 0.00 0.00 0.00 69 1005.2
20260506153515 69 0.0 1.0 0.00 0.00 0.00 68 1005.3
20260506153015 69 186 0.0 1.0 0.00 0.00 0.00 69 1005.3
20260506152515 69 0.0 0.0 0.00 0.00 0.00 68 1005.5
20260506152035 69 0.0 0.0 0.00 0.00 0.00 68 1005.6
20260506151515 69 0.0 0.0 0.00 0.00 0.00 69 1005.6
20260506151015 69 0.0 8.0 0.00 0.00 0.00 69 1005.7
20260506150515 69 213 1.0 8.0 0.00 0.00 0.00 69 1005.8
20260506150035 69 230 0.0 5.0 0.00 0.00 0.00 69 1005.7
20260506145515 69 0.0 5.0 0.00 0.00 0.00 70 1005.6
20260506145015 68 210 0.0 9.0 0.00 0.00 0.00 71 1005.7
20260506144515 68 246 0.0 9.0 0.00 0.00 0.00 70 1005.8
20260506144015 68 248 0.0 2.0 0.00 0.00 0.00 70 1005.9
20260506143515 68 226 0.0 1.0 0.00 0.00 0.00 71 1005.8
20260506143035 68 0.0 0.0 0.00 0.00 0.00 71 1005.8
20260506142515 68 0.0 3.0 0.00 0.00 0.00 73 1005.7
20260506142015 68 247 0.0 9.0 0.00 0.00 0.00 72 1005.7
20260506141515 68 152 0.0 11.0 0.00 0.00 0.00 71 1005.6
20260506141015 68 235 1.0 11.0 0.00 0.00 0.00 72 1005.5
20260506140515 67 227 0.0 5.0 0.00 0.00 0.00 72 1005.4
20260506140035 67 315 0.0 1.0 0.00 0.00 0.00 73 1005.3
20260506135515 67 0.0 0.0 0.00 0.00 0.00 74 1005.5
20260506135015 66 0.0 0.0 0.00 0.00 0.00 75 1005.6
20260506134515 66 0.0 1.0 0.00 0.00 0.00 74 1005.5
20260506134015 66 179 0.0 1.0 0.00 0.00 0.00 75 1005.6
20260506133515 66 0.0 0.0 0.00 0.00 0.00 75 1005.7
20260506133035 66 0.0 0.0 0.00 0.00 0.00 75 1005.8
20260506132515 66 0.0 0.0 0.00 0.00 0.00 75 1005.9
20260506132015 65 0.0 0.0 0.00 0.00 0.00 75 1006.0
20260506131515 65 0.0 0.0 0.00 0.00 0.00 76 1006.2
20260506131015 65 0.0 0.0 0.00 0.00 0.00 77 1006.2
20260506130515 65 0.0 0.0 0.00 0.00 0.00 76 1006.2
20260506130055 65 0.0 0.0 0.00 0.00 0.00 76 1006.2
20260506125535 64 0.0 0.0 0.00 0.00 0.00 77 1006.2
20260506125015 64 0.0 0.0 0.00 0.00 0.00 77 1006.2
20260506124515 64 0.0 0.0 0.00 0.00 0.00 77 1006.3
20260506124015 64 0.0 0.0 0.00 0.00 0.00 77 1006.2
20260506123515 64 0.0 0.0 0.00 0.00 0.00 78 1006.1
20260506123015 63 0.0 0.0 0.00 0.00 0.00 79 1006.0
20260506122515 63 0.0 0.0 0.00 0.00 0.00 80 1006.0
20260506122035 62 0.0 0.0 0.00 0.00 0.00 80 1006.0
20260506121515 62 0.0 0.0 0.00 0.00 0.00 80 1006.2
20260506121015 62 0.0 0.0 0.00 0.00 0.00 80 1006.5
20260506120515 62 0.0 0.0 0.00 0.00 0.00 80 1006.4
20260506120015 62 0.0 0.0 0.00 0.00 0.00 81 1006.3
20260506115515 61 0.0 0.0 0.00 0.00 0.00 82 1006.3
20260506115015 61 0.0 0.0 0.00 0.00 0.00 82 1006.3
20260506114535 61 0.0 0.0 0.00 0.00 0.00 81 1006.5
20260506114015 61 0.0 0.0 0.00 0.00 0.00 81 1006.6
20260506113535 61 0.0 0.0 0.00 0.00 0.00 81 1006.6
20260506113015 61 0.0 0.0 0.00 0.00 0.00 81 1006.7
20260506112515 61 0.0 0.0 0.00 0.00 0.00 81 1006.6
20260506112015 61 0.0 0.0 0.00 0.00 0.00 81 1006.7
20260506111515 60 0.0 0.0 0.00 0.00 0.00 81 1006.8
20260506111015 60 0.0 0.0 0.00 0.00 0.00 82 1006.8
20260506110515 60 0.0 0.0 0.00 0.00 0.00 82 1006.7
20260506110015 60 0.0 0.0 0.00 0.00 0.00 83 1006.6
20260506105515 60 0.0 0.0 0.00 0.00 0.00 83 1006.5
20260506105035 59 0.0 0.0 0.00 0.00 0.00 83 1006.7
20260506104535 59 0.0 0.0 0.00 0.00 0.00 83 1006.7
20260506104017 59 0.0 0.0 0.00 0.00 0.00 83 1006.7
20260506103517 59 0.0 0.0 0.00 0.00 0.00 83 1006.7
20260506103017 59 0.0 0.0 0.00 0.00 0.00 83 1006.6
20260506102517 59 0.0 0.0 0.00 0.00 0.00 83 1006.5
20260506102017 59 0.0 0.0 0.00 0.00 0.00 83 1006.5
20260506101516 59 0.0 0.0 0.00 0.00 0.00 83 1006.5
20260506101017 59 0.0 0.0 0.00 0.00 0.00 83 1006.5
20260506100516 59 0.0 0.0 0.00 0.00 0.00 83 1006.6
20260506100036 59 0.0 0.0 0.00 0.00 0.00 83 1006.6
20260506095516 59 0.0 0.0 0.00 0.00 0.00 82 1006.6
20260506095017 59 0.0 0.0 0.00 0.00 0.00 82 1006.5
20260506094516 59 0.0 0.0 0.00 0.00 0.00 82 1006.5
20260506094017 59 0.0 0.0 0.00 0.00 0.00 82 1006.5
20260506093517 59 0.0 0.0 0.00 0.00 0.00 81 1006.4
20260506093016 59 0.0 0.0 0.00 0.00 0.00 81 1006.3
20260506092517 59 0.0 0.0 0.00 0.00 0.00 81 1006.3
20260506092016 59 0.0 0.0 0.00 0.00 0.00 81 1006.5
20260506091516 59 0.0 0.0 0.00 0.00 0.00 81 1006.5
20260506091037 59 0.0 0.0 0.00 0.00 0.00 81 1006.4
20260506090536 59 0.0 0.0 0.00 0.00 0.00 80 1006.4
20260506090017 59 0.0 0.0 0.00 0.00 0.00 80 1006.4
20260506085516 59 0.0 0.0 0.00 0.00 0.00 80 1006.4
20260506085016 60 0.0 0.0 0.00 0.00 0.00 80 1006.4
20260506084516 60 0.0 0.0 0.00 0.00 0.00 80 1006.4
20260506084057 60 0.0 0.0 0.00 0.00 0.00 80 1006.5
20260506083516 60 0.0 0.0 0.00 0.00 0.00 79 1006.5
20260506083017 60 0.0 0.0 0.00 0.00 0.00 79 1006.5
20260506082516 60 0.0 0.0 0.00 0.00 0.00 79 1006.5
20260506082016 60 0.0 0.0 0.00 0.00 0.00 79 1006.4
20260506081516 60 0.0 0.0 0.00 0.00 0.00 78 1006.4
20260506081037 60 0.0 0.0 0.00 0.00 0.00 78 1006.4
20260506080516 60 0.0 0.0 0.00 0.00 0.00 78 1006.3
20260506073516 60 0.0 0.0 0.00 0.00 0.00 77 1006.4
20260506073036 60 0.0 0.0 0.00 0.00 0.00 76 1006.4
20260506072516 60 0.0 0.0 0.00 0.00 0.00 76 1006.3
20260506072016 60 0.0 0.0 0.00 0.00 0.00 76 1006.3
20260506071516 60 0.0 0.0 0.00 0.00 0.00 76 1006.2
20260506071036 60 0.0 0.0 0.00 0.00 0.00 75 1006.2
20260506070516 61 0.0 0.0 0.00 0.00 0.00 74 1006.1
20260506062516 61 0.0 0.0 0.00 0.00 0.00 72 1006.1
20260506062016 61 0.0 0.0 0.00 0.00 0.00 72 1006.1
20260506061516 61 0.0 0.0 0.00 0.00 0.00 72 1006.1
20260506061016 61 0.0 0.0 0.00 0.00 0.00 72 1006.1
20260506060556 61 0.0 0.0 0.00 0.00 0.00 72 1006.0
20260506051016 62 0.0 0.0 0.00 0.00 0.00 70 1006.2
20260506050516 62 0.0 0.0 0.00 0.00 0.00 70 1006.4
20260506045016 62 0.0 0.0 0.00 0.00 0.00 69 1006.4
20260506044516 62 0.0 0.0 0.00 0.00 0.00 68 1006.4
20260506044016 62 0.0 0.0 0.00 0.00 0.00 68 1006.5
20260506043516 63 0.0 0.0 0.00 0.00 0.00 68 1006.5
20260506043016 63 0.0 0.0 0.00 0.00 0.00 68 1006.4
20260506042516 63 0.0 0.0 0.00 0.00 0.00 68 1006.4
20260506042036 63 0.0 1.0 0.00 0.00 0.00 67 1006.4
20260506041516 63 171 0.0 1.0 0.00 0.00 0.00 67 1006.3
20260506041016 63 203 0.0 1.0 0.00 0.00 0.00 67 1006.4
20260506040515 63 0.0 0.0 0.00 0.00 0.00 67 1006.4
20260506040016 63 0.0 0.0 0.00 0.00 0.00 67 1006.4
20260506035515 63 0.0 2.0 0.00 0.00 0.00 66 1006.4
20260506035035 63 160 0.0 4.0 0.00 0.00 0.00 66 1006.4
20260506034515 63 147 0.0 4.0 0.00 0.00 0.00 66 1006.3
20260506034016 64 120 0.0 1.0 0.00 0.00 0.00 66 1006.3